EW8518 Ersa FR current weather conditions

sailwx.info

Wind from 335 at 0 knots gusting 2

Air temperature 23.9° C
Dewpoint 17.8° C

Last reported at 2020-Aug-06 19:01 UTC.
Time now 2020-Aug-06 19:47 UTC

Location: N 43°00' E 009°24'.
View on Google Maps.

See reports from other nearby stations

  
Tides and Currents Weather Stations Pressure Air Temp Water Temp Dewpoint Dewpoint Depression Visibility Wind Speed Wind Dir Waves Ship Positions
date/time (UTC)wind fromknots sea level pressurealtimeterstation pressurevisibilityair tempwater tempwave heightnotes
2020-Aug-06 19:01 335 0 gusting 2 23.9
2020-Aug-06 18:45 335 25.0
2020-Aug-06 18:31 335 26.1
2020-Aug-06 18:16 335 26.7
2020-Aug-06 18:01 335 0 gusting 3 27.2
2020-Aug-06 17:46 335 1 gusting 4 27.8
2020-Aug-06 17:30 335 0 gusting 5 27.8
2020-Aug-06 17:15 335 0 gusting 4 28.3
2020-Aug-06 17:00 335 0 gusting 3 27.8
2020-Aug-06 16:46 336 2 gusting 5 28.3
2020-Aug-06 16:31 336 0 gusting 5 28.3
2020-Aug-06 16:16 336 1 gusting 5 28.3
2020-Aug-06 16:01 336 2 gusting 7 28.3
2020-Aug-06 15:46 335 2 gusting 5 28.3
2020-Aug-06 15:30 333 4 gusting 7 28.3
2020-Aug-06 15:15 334 2 gusting 6 28.9
2020-Aug-06 15:02 333 3 gusting 6 28.9
2020-Aug-06 14:45 333 2 gusting 5 28.9
2020-Aug-06 14:31 333 1 gusting 8 28.3
2020-Aug-06 14:16 335 4 gusting 8 28.3
2020-Aug-06 14:01 339 2 gusting 7 28.9
2020-Aug-06 13:45 335 3 gusting 7 28.9
2020-Aug-06 13:30 338 2 gusting 7 28.9
2020-Aug-06 13:15 342 2 gusting 6 28.9
2020-Aug-06 13:00 347 2 gusting 5 28.9
2020-Aug-06 12:45 345 2 gusting 5 28.9
2020-Aug-06 12:30 341 3 gusting 7 28.9
2020-Aug-06 12:15 338 3 gusting 8 28.3
2020-Aug-06 12:00 334 3 gusting 7 28.3
2020-Aug-06 11:46 337 3 gusting 7 28.3
2020-Aug-06 11:31 334 3 gusting 8 28.3
2020-Aug-06 11:16 333 2 gusting 6 28.3
2020-Aug-06 11:00 333 3 gusting 8 28.3
2020-Aug-06 10:45 336 2 gusting 8 28.3
2020-Aug-06 10:30 336 1 gusting 7 28.3
2020-Aug-06 10:15 333 4 gusting 7 28.3
2020-Aug-06 10:00 334 3 gusting 7 27.8
2020-Aug-06 09:45 342 1 gusting 5 28.3
2020-Aug-06 09:30 344 2 gusting 5 28.9
2020-Aug-06 09:15 009 1 gusting 4 29.4
2020-Aug-06 09:00 005 0 gusting 4 28.9
2020-Aug-06 08:46 360 1 gusting 4 28.9
2020-Aug-06 08:31 360 1 gusting 4 28.9
2020-Aug-06 08:15 360 1 gusting 4 28.3
2020-Aug-06 08:00 343 1 gusting 4 28.3
2020-Aug-06 07:45 337 1 gusting 3 28.3
2020-Aug-06 07:30 336 2 gusting 4 28.3
2020-Aug-06 07:16 252 0 gusting 3 28.3
2020-Aug-06 07:01 248 28.3
2020-Aug-06 06:46 248 27.8
2020-Aug-06 06:30 248 26.7
2020-Aug-06 06:17 248 25.0
2020-Aug-06 06:01 248 23.9
2020-Aug-06 05:45 248 22.8
2020-Aug-06 05:31 248 21.7
2020-Aug-06 05:15 248 0 gusting 3 20.6
2020-Aug-06 05:00 248 0 gusting 1 20.0
2020-Aug-06 04:46 248 0 gusting 3 19.4
2020-Aug-06 04:31 248 0 gusting 3 18.9
2020-Aug-06 04:16 248 18.9
2020-Aug-06 04:01 248 18.9
2020-Aug-06 03:45 248 0 gusting 3 18.9
2020-Aug-06 03:30 248 0 gusting 2 18.9
2020-Aug-06 03:16 248 1 gusting 4 18.9
2020-Aug-06 03:01 248 0 gusting 4 18.9
2020-Aug-06 02:45 248 0 gusting 3 18.9
2020-Aug-06 02:31 252 1 gusting 4 18.9
2020-Aug-06 02:15 252 0 gusting 3 18.9
2020-Aug-06 02:01 252 0 gusting 2 20.0
2020-Aug-06 01:46 252 1 gusting 4 19.4
2020-Aug-06 01:31 255 1 gusting 5 18.9
2020-Aug-06 01:15 257 1 gusting 3 19.4
2020-Aug-06 01:01 259 0 gusting 3 20.0
2020-Aug-06 00:45 259 0 gusting 2 20.0
2020-Aug-06 00:30 260 0 gusting 5 20.0
2020-Aug-06 00:17 262 0 gusting 2 20.0
2020-Aug-06 00:03 263 1 gusting 5 20.0
2020-Aug-05 23:45 266 2 gusting 5 20.0
2020-Aug-05 23:31 273 2 gusting 6 20.6
2020-Aug-05 23:15 287 1 gusting 3 20.6
2020-Aug-05 23:01 294 0 gusting 4 21.1
2020-Aug-05 22:33 309 1 gusting 3 20.6
2020-Aug-05 22:17 311 21.1
2020-Aug-05 22:00 314 0 gusting 4 20.0
2020-Aug-05 21:46 317 1 gusting 3 20.0
2020-Aug-05 21:30 319 0 gusting 3 20.0
2020-Aug-05 21:15 319 20.0
2020-Aug-05 21:00 321 0 gusting 2 20.0
2020-Aug-05 20:47 321 1 gusting 3 20.0
2020-Aug-05 20:32 323 0 gusting 3 20.6
2020-Aug-05 20:16 329 0 gusting 2 20.6
2020-Aug-05 20:03 329 0 gusting 2 21.1
2020-Aug-05 19:47 330 0 gusting 2 21.1
2020-Aug-05 19:31 331 0 gusting 2 21.7
2020-Aug-05 19:17 331 0 gusting 2 22.2
2020-Aug-05 19:01 331 23.3
2020-Aug-05 18:46 331 25.0
2020-Aug-05 18:30 331 26.1
2020-Aug-05 18:16 331 26.7
2020-Aug-05 18:00 331 0 gusting 2 27.2
2020-Aug-05 17:45 331 1 gusting 4 27.2
2020-Aug-05 17:31 331 1 gusting 5 27.2
2020-Aug-05 17:16 330 1 gusting 5 27.2
2020-Aug-05 17:01 331 1 gusting 4 27.8
2020-Aug-05 16:45 333 1 gusting 5 27.8
2020-Aug-05 16:30 331 2 gusting 6 27.8
2020-Aug-05 16:15 334 0 gusting 7 27.8
2020-Aug-05 15:46 336 4 gusting 8 27.8
2020-Aug-05 15:31 335 2 gusting 7 27.8
2020-Aug-05 15:15 331 5 gusting 8 27.8
2020-Aug-05 15:00 335 3 gusting 7 27.8
2020-Aug-05 14:45 335 2 gusting 7 28.3
2020-Aug-05 14:30 342 3 gusting 6 28.3
2020-Aug-05 14:15 342 2 gusting 7 28.3
2020-Aug-05 14:01 339 2 gusting 6 28.3
2020-Aug-05 13:46 337 2 gusting 6 28.3
2020-Aug-05 13:30 344 2 gusting 6 28.9
2020-Aug-05 13:15 014 1 gusting 4 29.4
2020-Aug-05 12:46 026 1 gusting 7 28.9
2020-Aug-05 12:31 030 1 gusting 4 28.9
2020-Aug-05 12:15 030 1 gusting 4 28.3
2020-Aug-05 12:00 030 1 gusting 5 28.3
2020-Aug-05 11:45 030 1 gusting 4 27.8
2020-Aug-05 11:31 034 0 gusting 6 28.3
2020-Aug-05 11:16 038 0 gusting 5 27.2
2020-Aug-05 11:00 037 0 gusting 5 27.2
2020-Aug-05 10:45 040 0 gusting 5 27.2
2020-Aug-05 10:30 036 1 gusting 4 27.2
2020-Aug-05 10:15 044 0 gusting 5 27.2
2020-Aug-05 10:01 051 1 gusting 5 27.2
2020-Aug-05 09:45 053 1 gusting 5 26.7
2020-Aug-05 09:30 078 1 gusting 5 26.7
2020-Aug-05 09:15 084 2 gusting 6 26.1
2020-Aug-05 09:00 092 2 gusting 6 26.1
2020-Aug-05 08:45 081 1 gusting 6 26.7
2020-Aug-05 08:30 111 2 gusting 6 26.1
2020-Aug-05 08:16 119 2 gusting 6 25.6
2020-Aug-05 08:01 114 2 gusting 9 25.6
2020-Aug-05 07:45 115 2 gusting 8 26.1
2020-Aug-05 07:30 096 1 gusting 7 26.1
2020-Aug-05 07:15 078 2 gusting 6 26.1
2020-Aug-05 07:00 049 1 gusting 5 26.1
2020-Aug-05 06:45 023 3 gusting 7 26.1
2020-Aug-05 06:32 030 2 gusting 7 25.6
2020-Aug-05 06:16 015 6 gusting 10 25.6
2020-Aug-05 06:01 024 2 gusting 7 24.4
2020-Aug-05 05:47 026 3 gusting 5 23.3
2020-Aug-05 05:31 171 22.2
2020-Aug-05 05:15 171 0 gusting 2 21.1
2020-Aug-05 05:00 171 0 gusting 3 21.1
2020-Aug-05 04:45 171 0 gusting 2 21.1
2020-Aug-05 04:31 171 21.7
2020-Aug-05 04:16 175 0 gusting 3 21.7
2020-Aug-05 04:00 175 22.2
2020-Aug-05 03:45 171 1 gusting 4 22.2
2020-Aug-05 03:32 158 0 gusting 5 21.7
2020-Aug-05 03:16 142 0 gusting 3 21.1
2020-Aug-05 03:01 138 0 gusting 3 20.6
2020-Aug-05 02:46 123 2 gusting 6 19.4
2020-Aug-05 02:30 099 1 gusting 3 18.9
2020-Aug-05 02:15 097 1 gusting 3 19.4
2020-Aug-05 02:01 095 1 gusting 3 19.4
2020-Aug-05 01:46 088 0 gusting 3 19.4
2020-Aug-05 01:31 074 1 gusting 3 19.4
2020-Aug-05 01:15 042 1 gusting 4 20.0
2020-Aug-05 01:00 030 1 gusting 3 21.1
2020-Aug-05 00:45 030 22.2
2020-Aug-05 00:18 024 2 gusting 6 23.9
2020-Aug-05 00:01 360 3 gusting 6 23.9
2020-Aug-04 23:45 011 4 gusting 12 23.9
2020-Aug-04 23:30 338 6 gusting 13 23.3
2020-Aug-04 23:15 289 2 gusting 9 23.3
2020-Aug-04 23:00 274 4 gusting 10 23.3
2020-Aug-04 22:45 300 3 gusting 11 23.3
2020-Aug-04 22:30 282 6 gusting 15 23.3
2020-Aug-04 22:15 279 6 gusting 14 23.3
2020-Aug-04 22:00 286 6 gusting 16 23.3
2020-Aug-04 21:46 273 4 gusting 13 23.3
2020-Aug-04 21:32 276 5 gusting 13 22.8
2020-Aug-04 21:16 259 4 gusting 12 22.8
2020-Aug-04 21:00 212 5 gusting 12 22.8
2020-Aug-04 20:45 260 3 gusting 10 22.8
2020-Aug-04 20:30 262 3 gusting 10 22.8
2020-Aug-04 20:17 265 4 gusting 13 22.8
2020-Aug-04 20:01 254 5 gusting 11 22.8
2020-Aug-04 19:47 242 4 gusting 10 22.8
2020-Aug-04 19:31 266 3 gusting 9 22.8
2020-Aug-04 19:15 279 5 gusting 11 22.8
2020-Aug-04 19:00 266 5 gusting 13 22.8